COSMOS 1275 DEB, 13488

Orbit data source: Space-Track

COSMOS 1275 DEB, 13488 is space debris in LEO originally from a launch on Thu, 04 Jun 1981 UTC launched from the Plesetsk Missile And Space Complex (PKMTR). Debris objects in space refer to the collection of defunct objects orbiting the Earth. Examples of debris include non-operational satellites, rocket bodies, and fragments generated from explosions, collisions, or faulty payload assembly.

Loading next visibility...
Identifier
13488, 1981-053GJ
Orbit
LEO
Country
Flag of CISCIS
Related business
Manufacturer
Unknown
Mission
Spacecraft
Bus & Motor
Unknown
Mass
Unknown
Launch date (UTC)
1981-06-04 (45 years ago)
Launch vehicle
Unknown
Launch site
Plesetsk Missile And Space Complex (PKMTR)
Object type
Payload
Rocket body
Debris
Shape & HBR
Unknown shape, 0.1 m
Radar Cross Section
Small (<0.1 m²)

Expand to show TLE details & history
Last TLE update: 14 hours ago

TLE from 14 hours ago
0 COSMOS 1275 DEB
1 13488U 81053GJ  26145.37432709  .00000716  00000-0  10034-2 0  9998
2 13488  83.0839 102.5654 0189139 170.0345 346.3336 13.48948710149255
Epoch: 2026-05-25T08:59Z
TLE epoch observation values (Epoch: 2026-05-25T08:59:01.860Z)
Latitude
23.9932°
Longitude
-98.23395°
Altitude
942.129 km
Speed
7.45 km/s
True Right ascension
18h 37m 56s
True Declination
23° 52' 08"
Sunlit
Object was in full shadow at epoch
Visualization orbit readout
Latitude
Unknown
Longitude
Unknown
Altitude
Unknown
Speed
Unknown
Apparent Right ascension
Unknown
Apparent Declination
Unknown
Sunlit
N/A
Visualization observer readout
Local Sidereal Time
08:14:20
Azimuth
Unknown
Elevation
Unknown
Doppler factor
Unknown
Orbital elements
Apogee altitude
1,214.243 km
Perigee altitude
932.371 km
Semi-major axis
7,451.444 km
Eccentricity
0.01891
Inclination
83.0839°
RAAN
102.5654°
Arg. of periapsis
170.0345°
True anomaly
345.8095°
Mean anomaly
346.3336°
Eccentric anomaly
346.07277°
Mean motion
3.37429 °/min
Orbital period
106.69 mins
BSTAR
0.0010034
Loading maneuver chart data...
Computing Atmospheric mass density...
Loading historical data...
Loading historical data...
Loading historical data...
Loading historical data...
Loading historical data...
Loading historical data...
Loading historical data...

Documentation

Showing up to 5 results
|